Theta_e
304 297 294 298 300 301 301 300 300 304 313 312 312 312 315 316 316 315 315 314 315 316 320 322 323 329 332 335 335 337 339 342 344 350 348 344 341 339 337 332 330 327 328 330
299 295 302 305 305 303 302 299 299 304 313 311 310 311 313 317 315 318 316 318 315 316 319 323 323 327 331 335 336 339 341 344 347 349 348 345 341 337 334 331 325 328 328 329
297 301 308 305 302 302 299 298 299 299 305 312 309 307 311 317 316 317 318 319 320 317 319 322 324 326 330 335 336 339 346 345 351 348 346 339 335 334 328 324 323 327 327 329
300 306 306 303 302 302 295 304 304 303 299 300 310 299 307 313 315 315 317 313 319 320 321 324 324 326 330 333 339 339 347 346 350 346 341 338 334 329 323 321 323 326 328 329
300 302 301 300 303 305 300 304 301 301 297 294 297 297 302 306 304 306 307 310 314 322 323 324 325 328 330 334 340 341 350 349 348 343 341 337 332 324 322 322 323 324 327 328
303 308 305 303 306 305 306 301 299 297 294 290 295 295 295 299 302 305 308 310 311 313 322 324 328 328 331 338 340 344 350 348 347 345 339 336 327 322 321 320 321 323 326 326
301 303 306 309 302 304 300 297 288 287 287 288 297 295 295 303 307 307 309 310 312 313 312 321 325 330 339 335 331 330 326 336 345 343 339 334 327 323 321 322 322 323 324 324
295 295 304 309 303 299 298 295 288 285 287 290 298 294 298 306 309 309 310 311 312 312 321 329 332 334 333 330 329 326 324 325 344 344 339 332 328 326 324 324 323 324 325 324
296 298 309 310 309 305 298 294 298 292 292 290 293 298 303 308 311 311 309 310 310 312 314 333 335 334 333 328 326 325 323 325 344 343 338 331 330 327 324 324 323 324 325 327
302 298 308 309 309 305 301 303 292 293 286 285 292 294 296 306 307 309 307 307 309 313 315 334 335 335 332 326 324 324 325 337 345 343 336 333 330 331 324 327 325 325 326 329
302 300 301 305 302 301 300 296 296 295 294 289 289 293 303 303 308 309 307 309 309 311 313 330 333 332 329 326 327 327 339 345 342 339 335 332 332 332 327 328 327 326 328 329
307 302 296 300 306 308 304 301 299 293 291 294 293 294 307 307 308 309 310 315 313 313 313 325 335 329 325 324 325 328 338 343 340 337 335 333 333 333 327 327 327 330 329 328
305 300 294 296 300 303 301 304 302 300 297 292 291 293 309 311 307 311 311 312 315 316 313 327 339 338 333 335 342 343 344 340 337 335 334 333 333 332 327 327 326 332 329 325
311 300 298 294 298 303 301 305 304 299 294 295 297 298 303 306 307 309 311 312 312 316 315 317 339 342 344 345 345 342 340 340 338 336 334 333 332 332 330 329 327 331 328 325
308 299 301 301 303 303 302 302 303 300 300 298 300 299 301 304 306 308 310 315 313 312 313 316 324 339 342 343 342 340 337 337 336 336 336 335 333 332 331 331 330 329 325 318
305 298 303 301 305 301 299 301 302 303 304 303 303 302 308 312 310 309 310 313 313 313 315 316 319 322 337 342 342 342 340 338 338 334 334 335 335 333 332 330 329 325 318 316
301 300 297 294 303 301 297 303 301 302 304 303 299 303 308 309 309 310 309 310 313 314 314 315 316 323 326 332 340 339 338 338 337 336 336 336 335 332 330 329 324 317 315 314
299 298 297 293 296 288 300 308 307 304 305 305 307 310 310 309 313 310 310 310 311 317 321 324 324 322 321 323 328 335 338 338 337 336 335 335 333 329 327 323 318 316 314 312
304 299 294 289 290 296 299 302 302 300 299 308 307 308 308 308 314 309 319 321 316 320 322 323 325 325 324 324 326 328 335 337 336 334 333 333 331 326 322 318 317 315 312 310
302 302 296 292 288 286 297 306 311 309 297 309 309 307 305 307 302 306 311 324 325 325 324 324 326 326 326 327 329 327 333 332 332 330 330 330 327 322 320 317 315 313 311 311
292 293 293 293 291 295 304 308 311 296 296 309 310 308 306 303 306 309 313 323 324 324 324 324 326 326 326 328 328 327 331 330 331 329 328 325 322 320 318 316 312 312 311 311
292 290 290 291 289 289 306 306 299 306 309 309 309 309 306 308 309 310 310 315 317 323 324 326 327 325 326 328 327 326 327 331 328 327 323 321 319 318 314 311 311 310 310 309
287 292 290 293 293 300 305 308 312 312 308 308 308 310 309 307 308 309 307 310 312 312 324 328 326 323 324 326 327 325 325 326 325 323 318 317 314 313 310 309 309 309 309 307
293 296 290 291 295 297 299 301 309 308 307 309 311 310 310 307 309 309 311 308 308 309 322 323 324 321 320 322 326 323 324 322 321 317 316 312 310 309 310 310 309 308 307 306
291 293 290 290 294 297 299 301 303 304 308 309 310 309 309 309 309 309 310 311 312 312 315 323 321 322 320 321 321 317 314 313 310 310 310 309 308 308 308 308 308 308 308 307
293 291 288 287 295 296 297 300 301 300 302 306 308 308 310 310 309 310 309 311 311 312 313 319 321 320 318 319 316 314 312 312 309 307 306 306 306 307 307 306 305 299 300 298
Wind_Speed
9 3 7 14 12 13 8 8 9 9 4 7 12 9 18 13 10 11 20 19 18 21 20 17 16 16 15 14 12 12 11 11 8 6 5 4 5 4 4 5 5 6 7 7
7 7 13 12 13 11 14 7 8 10 3 6 11 21 8 14 12 21 14 18 21 19 18 19 20 19 20 17 17 12 12 15 8 8 4 5 6 3 6 4 6 7 7 9
9 12 14 16 11 10 8 4 5 9 8 7 10 6 5 7 10 14 15 19 21 23 21 21 22 21 21 20 21 18 19 19 13 9 6 4 4 4 3 3 2 4 5 4
9 13 14 13 7 8 7 8 7 11 8 5 15 3 8 21 26 17 18 10 18 20 21 22 24 23 24 25 22 22 19 21 16 15 10 14 9 6 2 4 3 3 6 5
12 9 10 9 7 5 9 6 7 6 8 5 8 1 8 10 9 11 10 11 11 22 26 23 27 25 26 23 22 19 17 17 16 14 14 10 7 4 4 4 6 4 5 6
10 10 6 7 7 8 8 6 9 7 2 7 7 6 6 6 6 6 9 10 10 11 21 24 27 26 14 13 19 15 9 8 11 13 11 11 11 9 7 5 6 4 4 4
10 13 14 9 7 7 3 2 5 6 5 7 7 7 9 8 10 9 12 13 12 5 4 9 18 16 17 20 22 12 5 11 9 9 11 11 13 11 10 8 9 7 5 3
6 11 10 14 12 12 9 10 7 8 3 7 7 11 12 9 11 11 11 6 7 8 10 16 21 22 20 23 23 22 21 22 18 15 12 9 12 8 6 9 8 8 7 5
6 12 13 11 9 12 8 6 10 6 5 5 6 11 9 10 14 21 10 8 6 8 9 17 20 22 22 19 17 20 23 21 17 14 11 12 12 11 9 11 7 7 7 7
9 6 9 13 8 3 11 8 2 3 5 8 6 8 8 8 11 1 5 7 7 6 10 16 17 20 19 22 20 16 19 21 17 14 12 12 12 10 9 10 11 11 10 12
8 6 6 5 3 5 5 2 3 6 6 7 4 8 9 4 5 9 2 6 6 7 7 18 15 18 20 18 16 15 17 16 13 12 11 12 10 12 11 11 12 10 10 14
3 1 1 8 7 6 5 7 8 6 8 5 6 9 10 6 8 6 9 2 6 7 8 15 15 15 15 18 19 19 16 15 14 12 12 13 12 13 9 11 13 7 12 12
3 4 4 7 7 7 4 7 6 4 4 9 10 9 8 4 4 4 9 2 13 8 8 15 17 18 17 16 16 18 17 15 15 15 14 12 12 11 9 7 9 10 14 13
6 3 8 6 6 7 9 10 9 3 4 6 10 10 9 11 8 8 9 11 7 8 9 11 16 17 18 19 19 19 18 17 17 18 17 16 15 15 13 10 8 12 13 13
6 3 6 7 7 12 18 20 18 15 11 8 9 10 8 10 13 12 10 9 10 8 4 6 12 16 18 20 18 18 19 21 20 17 18 17 17 15 14 12 12 13 12 12
5 4 8 6 10 15 22 24 22 13 16 17 14 17 12 24 14 12 10 8 9 9 8 7 10 11 25 24 23 23 22 22 21 17 14 16 17 17 15 13 13 13 14 13
5 3 7 4 11 18 15 12 14 19 16 17 17 18 12 17 10 8 10 10 8 10 13 11 13 11 13 15 17 17 16 15 15 15 13 16 17 16 15 15 15 16 16 15
8 5 4 6 5 18 2 10 15 13 13 9 15 19 19 20 25 10 9 10 10 6 9 13 9 6 7 8 9 10 14 16 15 11 13 14 15 14 14 15 17 17 14 14
13 7 5 5 8 19 15 16 17 20 25 15 11 19 24 27 19 9 4 3 5 8 5 9 14 11 9 9 8 8 8 12 17 14 14 15 15 16 16 17 17 16 15 13
6 12 10 4 11 18 4 13 18 10 15 16 12 14 19 21 12 9 36 3 6 5 8 12 9 8 10 6 7 8 8 16 14 15 14 13 15 16 16 16 15 12 14 14
7 5 6 9 10 10 15 15 12 9 9 11 11 10 13 10 8 19 29 22 6 8 8 8 11 11 9 8 8 8 9 12 13 16 15 13 12 13 14 14 14 14 14 14
4 3 4 4 6 8 16 9 5 8 11 11 11 9 10 10 15 20 19 19 28 20 11 10 11 10 8 9 9 8 9 12 14 16 16 15 16 12 11 15 13 14 15 15
4 4 4 4 6 18 5 4 3 1 3 5 6 11 11 11 12 17 20 21 22 36 2 14 13 11 8 8 8 9 5 10 13 15 16 15 15 14 16 16 14 13 14 12
6 10 4 10 1 17 17 17 5 5 5 4 3 6 6 9 9 11 17 18 22 29 26 8 12 10 8 8 11 9 8 9 13 15 14 13 15 14 12 10 11 13 13 12
8 10 8 16 19 15 11 11 13 14 6 7 5 3 2 5 11 8 10 14 12 18 29 3 7 9 7 8 10 10 11 12 11 12 12 11 10 12 12 10 11 12 11 12
11 15 11 16 17 13 15 15 16 18 17 8 6 7 6 6 6 6 9 10 11 18 25 12 4 8 8 8 9 9 9 12 13 11 9 9 10 10 10 10 9 10 10 14
Wind_Direction
251 183 237 240 236 234 253 263 272 276 286 112 147 172 263 220 209 178 194 189 190 190 191 175 169 161 162 160 156 161 149 163 158 158 137 136 143 146 119 138 136 125 124 127
285 225 241 249 259 246 254 274 309 306 197 80 181 207 233 176 201 207 191 198 196 192 186 181 174 169 166 166 174 160 153 160 157 162 143 149 154 186 143 147 147 151 151 141
208 243 232 250 259 280 286 247 296 272 298 238 136 297 210 294 234 233 228 210 195 192 187 182 182 178 171 175 178 174 162 161 156 152 129 95 73 84 76 123 17 133 147 146
241 256 260 267 244 242 279 280 249 271 301 189 233 208 312 208 220 238 230 216 194 192 195 187 186 183 180 187 180 176 167 161 153 152 155 162 164 156 120 136 155 151 135 133
254 261 270 277 250 307 268 328 306 302 303 307 282 81 227 214 224 233 242 227 218 206 193 186 189 186 190 186 184 169 153 159 151 157 162 162 137 118 124 114 146 148 141 149
257 276 268 260 280 241 268 323 330 327 310 285 263 189 249 241 216 242 237 239 239 200 198 192 191 186 168 99 62 5 98 119 154 156 152 162 139 145 139 150 167 166 146 150
275 268 271 259 281 307 1 43 328 322 328 254 273 307 233 260 249 216 233 245 247 275 177 181 188 160 130 112 101 76 352 293 193 178 172 160 149 152 162 181 172 169 157 164
250 288 246 247 210 198 209 174 168 237 262 281 314 269 273 257 272 261 238 183 122 113 117 115 124 130 137 138 148 158 179 227 213 192 178 147 141 159 173 177 172 171 172 174
223 257 277 284 291 182 236 252 214 202 255 284 264 288 296 285 281 258 165 141 125 113 101 133 135 140 145 146 165 176 191 218 218 193 170 159 159 167 175 178 160 169 171 178
225 261 241 276 328 276 159 201 321 339 206 258 270 269 263 316 310 103 104 131 144 136 108 144 148 153 156 161 177 175 191 203 197 184 175 163 167 173 176 173 175 183 177 178
224 174 260 251 263 266 320 270 247 157 159 206 242 261 222 227 11 342 212 197 176 174 165 161 168 169 164 168 177 179 183 184 181 170 173 161 170 183 177 175 183 182 166 165
348 297 251 237 252 281 295 258 182 144 277 231 197 252 286 284 41 5 310 320 269 199 194 143 168 163 164 166 168 181 186 178 172 167 170 174 176 180 169 182 185 161 162 161
301 334 356 332 341 332 280 272 246 207 149 216 246 265 279 293 45 291 300 298 274 218 177 145 157 167 171 172 169 170 176 176 169 172 173 174 176 176 176 171 180 153 153 152
353 193 173 199 244 301 290 289 293 260 238 225 237 260 271 277 268 255 242 244 220 238 196 165 166 171 168 175 177 174 177 183 179 178 177 180 180 178 176 169 170 156 154 142
43 300 308 263 259 284 285 284 288 290 281 272 278 262 260 255 262 255 250 255 234 219 175 205 177 171 185 181 183 185 182 185 189 182 175 176 175 172 177 175 162 152 140 131
360 298 340 316 295 269 269 278 285 283 292 293 291 281 249 258 259 260 241 217 228 188 211 200 163 171 184 191 187 186 182 187 182 184 179 169 165 168 173 162 148 134 129 136
285 14 1 278 350 321 285 271 257 274 273 280 284 299 322 306 286 247 248 256 223 219 214 203 191 142 185 177 182 177 175 172 171 170 165 165 167 165 166 147 138 139 141 139
245 274 210 266 323 262 197 347 335 324 305 4 352 349 344 332 314 260 239 222 237 216 127 101 104 110 102 108 124 158 168 173 162 156 162 163 165 160 153 149 145 143 148 149
224 223 252 229 232 279 286 298 303 301 293 58 2 358 351 337 316 322 7 58 172 146 132 138 137 135 123 121 135 133 165 142 160 160 159 161 159 153 155 151 153 147 139 139
241 222 223 233 260 271 31 358 342 342 280 37 25 13 4 355 3 313 317 131 111 128 140 132 116 111 110 110 116 118 133 133 153 141 149 152 151 156 153 149 146 141 138 136
297 301 228 243 254 276 15 9 344 258 307 342 12 6 9 13 318 303 342 330 175 154 144 129 119 118 115 95 90 83 106 129 133 135 133 132 135 139 143 141 138 140 138 136
312 313 319 332 262 261 27 32 355 319 328 351 354 338 340 355 356 342 341 338 14 301 147 114 103 95 86 85 84 79 94 132 124 126 128 131 135 134 131 134 139 141 141 144
310 74 280 268 274 313 56 157 223 322 292 322 320 313 326 347 5 354 342 359 354 349 100 108 105 90 72 72 83 82 110 116 123 127 132 132 131 137 142 141 143 140 144 145
301 343 293 326 351 318 316 309 196 217 214 257 286 295 330 329 338 8 345 356 359 357 300 66 89 91 79 63 69 70 84 104 124 127 132 130 135 139 144 144 151 150 154 152
267 300 288 284 287 297 300 328 310 304 275 269 266 256 283 306 316 341 339 328 12 288 305 17 67 93 95 81 82 92 97 103 104 114 126 131 137 144 143 149 155 157 162 160
243 258 262 269 285 295 307 321 314 303 302 271 245 269 269 252 258 276 299 300 310 301 298 320 96 107 108 99 103 104 113 122 128 128 131 139 139 140 140 138 122 63 118 123